Location: Newark
(13.8117°N, 3.6025°W)
Time: 15:33:14
(UTC+00:00)

Explorer 11/Cluster Stage 4 - Pass Details

Date: 26 August 2019
Orbit: 467 x 1260 km, 28.8° (Epoch: 17 September)

Event Time Altitude Azimuth Distance (km) Brightness Sun altitude
Rises 08:56:00 0° 268° (W) 3,696 9.6 41.0°
Reaches altitude 10° 08:58:42 10° 276° (W) 2,858 9.1 41.7°
Maximum altitude 09:05:24 40° 344° (NNW) 1,660 8.5 43.3°
Drops below altitude 10° 09:12:55 10° 51° (NE) 3,212 10.4 45.1°
Sets 09:16:09 0° 58° (ENE) 4,198 10.9 45.9°
